Humidity-temperature Sensor

Selected Measurement Type: Relative Humidity

 
Relative Humidity [%]     6 entries per hour
Showing data from 8/20/2022 (00:00:00 Z) to 8/17/2022 (00:01:00 Z)
Previous Next [ Day | 3-Days | 7-Days ]
First Last
Prev [ Day | 3-Days | 7-Days ] Next
First Last

Start Time:     :
End Time:     :     
Time (in GMT) :00 :50 :40 :30 :20 :10
Previous Next [ Day | 3-Days | 7-Days ]
First Last
Prev [ Day | 3-Days | 7-Days ] Next
First Last


123 => good data
MM => data is determined as missing
-- => data not received/configured
Back to Top Back to Top
8/20/2022 00:00 to 23:10 100.91 100.91 100.91 100.91 100.91 100.91
8/19/2022 23:00 to 22:10 100.91 100.91 100.91 100.91 100.91 100.91
8/19/2022 22:00 to 21:10 100.91 100.91 100.91 100.91 100.91 100.91
8/19/2022 21:00 to 20:10 100.91 100.91 100.91 100.91 100.91 100.91
8/19/2022 20:00 to 19:10 100.91 100.91 100.91 100.91 100.91 100.91
8/19/2022 19:00 to 18:10 100.91 100.91 100.91 100.91 100.91 100.91
8/19/2022 18:00 to 17:10 100.91 100.91 100.91 100.91 100.91 100.91
8/19/2022 17:00 to 16:10 100.91 100.91 100.91 100.91 100.91 100.91
8/19/2022 16:00 to 15:10 100.91 100.91 100.91 100.91 100.91 100.91
8/19/2022 15:00 to 14:10 100.85 100.85 100.68 100.46 100.23 100.11
8/19/2022 14:00 to 13:10 100.15 100.01 99.94 99.61 99.66 99.49
8/19/2022 13:00 to 12:10 99.29 98.83 98.51 97.87 97.25 97.13
8/19/2022 12:00 to 11:10 96.88 96.64 97.13 97.60 97.93 97.95
8/19/2022 11:00 to 10:10 98.16 98.36 98.59 99.06 99.31 99.41
8/19/2022 10:00 to 9:10 99.53 99.53 99.51 99.57 99.43 99.35
8/19/2022 09:00 to 8:10 99.04 98.83 98.57 98.03 98.01 97.74
8/19/2022 08:00 to 7:10 97.48 97.38 97.27 97.31 97.05 97.17
8/19/2022 07:00 to 6:10 97.07 97.11 97.09 97.15 97.11 97.17
8/19/2022 06:00 to 5:10 97.29 97.50 97.66 97.77 97.72 98.03
8/19/2022 05:00 to 4:10 98.14 98.22 98.63 98.75 98.96 99.37
8/19/2022 04:00 to 3:10 99.49 99.20 99.45 99.45 99.68 99.66
8/19/2022 03:00 to 2:10 99.78 99.78 99.90 100.01 100.05 100.07
8/19/2022 02:00 to 1:10 100.11 100.13 100.13 100.15 100.27 100.19
8/19/2022 01:00 to 0:10 100.23 100.36 100.15 100.11 99.88 99.61
8/19/2022 00:00 to 23:10 99.37 99.16 98.75 98.55 98.16 97.64
8/18/2022 23:00 to 22:10 97.07 96.92 97.07 96.74 96.68 96.55
8/18/2022 22:00 to 21:10 96.22 95.90 95.38 94.54 93.33 93.33
8/18/2022 21:00 to 20:10 93.72 94.31 94.87 95.32 94.97 94.52
8/18/2022 20:00 to 19:10 93.64 91.97 90.14 89.22 88.64 88.83
8/18/2022 19:00 to 18:10 88.99 89.16 89.16 89.11 89.32 89.48
8/18/2022 18:00 to 17:10 89.59 89.83 90.02 90.29 90.39 90.63
8/18/2022 17:00 to 16:10 -- -- -- -- -- --
8/18/2022 16:00 to 15:10 91.00 91.07 91.19 91.40 91.68 91.74
8/18/2022 15:00 to 14:10 91.72 91.56 91.25 90.84 90.53 90.29
8/18/2022 14:00 to 13:10 90.37 90.43 90.45 90.74 90.90 90.80
8/18/2022 13:00 to 12:10 90.74 90.74 90.94 90.82 91.05 90.90
8/18/2022 12:00 to 11:10 90.80 90.68 90.90 91.25 91.66 91.74
8/18/2022 11:00 to 10:10 91.31 90.61 90.22 90.10 90.00 89.92
8/18/2022 10:00 to 9:10 89.67 90.00 90.00 90.18 90.29 90.82
8/18/2022 09:00 to 8:10 90.88 91.17 91.35 91.66 92.01 92.30
8/18/2022 08:00 to 7:10 92.79 93.22 93.72 94.52 94.95 95.24
8/18/2022 07:00 to 6:10 95.14 94.64 94.37 93.59 93.29 93.57
8/18/2022 06:00 to 5:10 93.57 93.68 93.92 94.33 94.64 95.05
8/18/2022 05:00 to 4:10 95.20 95.48 95.94 96.66 96.96 97.21
8/18/2022 04:00 to 3:10 97.46 98.03 97.97 98.07 97.93 97.95
8/18/2022 03:00 to 2:10 98.14 98.09 97.89 97.93 97.19 96.53
8/18/2022 02:00 to 1:10 95.75 94.46 93.18 91.50 91.09 91.21
8/18/2022 01:00 to 0:10 91.03 90.94 90.66 90.18 89.13 88.99
8/18/2022 00:00 to 23:10 89.26 89.42 89.77 90.33 91.23 91.74
8/17/2022 23:00 to 22:10 91.70 91.56 90.96 90.24 90.22 91.25
8/17/2022 22:00 to 21:10 92.42 92.44 92.55 92.59 91.35 87.76
8/17/2022 21:00 to 20:10 86.83 87.08 87.41 87.53 88.21 88.64
8/17/2022 20:00 to 19:10 88.79 88.40 89.22 90.18 90.68 90.43
8/17/2022 19:00 to 18:10 89.44 87.74 87.18 87.12 88.23 88.25
8/17/2022 18:00 to 17:10 88.56 88.54 88.64 88.68 88.62 88.74
8/17/2022 17:00 to 16:10 -- -- -- -- -- --
8/17/2022 16:00 to 15:10 91.85 91.87 91.97 92.92 92.96 93.08
8/17/2022 15:00 to 14:10 93.06 92.65 91.66 91.44 90.94 90.66
8/17/2022 14:00 to 13:10 90.90 91.03 90.78 90.43 89.87 89.55
8/17/2022 13:00 to 12:10 89.05 89.18 89.90 90.35 90.59 90.55
8/17/2022 12:00 to 11:10 90.74 90.70 90.78 90.47 89.69 89.28
8/17/2022 11:00 to 10:10 89.55 89.24 88.89 88.81 89.20 89.75
8/17/2022 10:00 to 9:10 89.67 89.42 89.59 89.65 89.42 88.95
8/17/2022 09:00 to 8:10 89.42 90.18 89.55 88.93 89.09 89.98
8/17/2022 08:00 to 7:10 90.20 90.18 90.39 90.59 90.72 90.72
8/17/2022 07:00 to 6:10 90.41 90.41 90.43 90.10 89.77 89.07
8/17/2022 06:00 to 5:10 88.85 88.48 88.37 88.07 88.35 88.46
8/17/2022 05:00 to 4:10 88.91 88.93 89.16 89.36 90.02 90.27
8/17/2022 04:00 to 3:10 90.29 90.22 90.14 89.96 90.00 89.67
8/17/2022 03:00 to 2:10 89.53 89.38 88.74 88.31 88.11 88.25
8/17/2022 02:00 to 1:10 88.15 88.17 88.17 88.27 88.68 88.66
8/17/2022 01:00 to 0:10 88.23 88.11 87.94 88.35 88.15 87.90